Location: Unspecified
(0.0000°N, 0.0000°E)
Time: 17:53:38
(UTC+00:00)

STARLINK 1016 - Pass Details

Date: 16 January 2020
Orbit: 347 x 352 km, 53.0° (Epoch: 18 January)

Event Time Altitude Azimuth Distance (km) Brightness Sun altitude
Rises 04:58:09 0° 180° (S) 2,151 7.0 -16.6°
Reaches altitude 10° 05:01:48 10° 132° (SE) 1,303 6.7 -15.8°
Maximum altitude 05:02:09 10° 125° (SE) 1,293 6.8 -15.7°
Drops below altitude 10° 05:02:30 10° 118° (ESE) 1,301 6.9 -15.6°
Sets 05:06:08 0° 70° (ENE) 2,136 7.4 -14.8°
